Date String (YYYY-MM-DD hh:mm:ss) UTC,Instrument flags,Ambient pressure (hPa),Sample flow (lpm),Bypass flow (lpm),Sample temperature (°C),Ambient temperature (°C),ASC tube jacket temperature (°C),LED temperature (°C),Box temperature (°C),Sample RH (%),Span deviation,Mass concentration (μg/m³),Mass concentration (μg/m³),Mass concentration (μg/m³)
DateTimeUTC,F1_M11,P_M11,Q1_M11,Q2_M11,T1_M11,T2_M11,T3_M11,T4_M11,T5_M11,U1_M11,ZSPAN_M11,X0_M11,X2_M11,X1_M11
2022-03-05 00:00:00,,0814.2,4.98,0.00,29.2,28.5,00.0,38.1,31.0,10.1,-001.1,0016.79,0007.84,0006.64
2022-03-05 00:01:00,,0814.1,5.02,0.00,29.2,28.5,00.0,38.1,31.0,10.2,-000.6,0016.50,0007.89,0006.63
2022-03-05 00:02:00,,0814.1,4.98,0.00,29.2,28.5,00.0,38.1,30.9,09.5,-000.0,0017.04,0007.87,0006.60
2022-03-05 00:03:00,,0814.1,5.00,0.00,29.2,28.5,00.0,38.1,30.9,09.6,0000.5,0017.17,0007.75,0006.54
2022-03-05 00:04:00,,0814.1,5.01,0.00,29.2,28.5,00.0,38.1,30.9,09.6,0000.5,0016.96,0007.66,0006.49
2022-03-05 00:05:00,,0814.1,5.00,0.00,29.2,28.5,00.0,38.1,31.0,09.2,0000.4,0016.68,0007.58,0006.40
2022-03-05 00:06:00,,0814.1,4.99,0.00,29.2,28.5,00.0,38.1,31.0,09.6,0000.7,0016.97,0007.52,0006.31
2022-03-05 00:07:00,,0814.1,5.00,0.00,29.2,28.5,00.0,38.1,31.0,09.9,0000.5,0017.13,0007.50,0006.27
2022-03-05 00:08:00,,0814.2,5.01,0.00,29.2,28.5,00.0,38.1,30.9,09.5,0000.2,0017.13,0007.44,0006.18
2022-03-05 00:09:00,,0814.0,4.99,0.00,29.2,28.5,00.0,38.2,30.9,08.7,0000.5,0017.48,0007.25,0005.96
2022-03-05 00:10:00,,0814.0,5.00,0.00,29.2,28.5,00.0,38.2,30.9,08.6,0000.6,0018.07,0006.92,0005.68
2022-03-05 00:11:00,,0814.0,5.00,0.00,29.2,28.5,00.0,38.2,31.0,08.7,0000.6,0017.47,0006.58,0005.38
2022-03-05 00:12:00,,0814.1,5.00,0.00,29.2,28.5,00.0,38.2,31.0,08.8,0000.1,0017.30,0006.22,0005.08
2022-03-05 00:13:00,,0814.0,4.99,0.00,29.2,28.5,00.0,38.2,30.9,08.8,0000.0,0016.27,0005.86,0004.79
2022-03-05 00:14:00,,0814.0,4.99,0.00,29.2,28.5,00.0,38.2,30.9,09.0,0000.0,0015.49,0005.62,0004.55
2022-03-05 00:15:00,,0814.0,5.00,0.00,29.2,28.5,00.0,38.2,30.9,09.1,0000.0,0014.34,0005.29,0004.29
2022-03-05 00:16:00,,0814.0,5.00,0.00,29.2,28.5,00.0,38.2,30.9,08.9,0000.0,0013.62,0004.96,0004.05
2022-03-05 00:17:00,,0814.0,5.01,0.00,29.2,28.5,00.0,38.2,31.0,08.9,0000.0,0012.97,0004.71,0003.87
2022-03-05 00:18:00,,0814.0,4.98,0.00,29.2,28.5,00.0,38.2,31.0,09.1,0000.0,0012.72,0004.35,0003.59
2022-03-05 00:19:00,,0814.0,5.01,0.00,29.2,28.5,00.0,38.2,30.9,08.8,0000.0,0011.86,0004.04,0003.37
2022-03-05 00:20:00,,0813.9,4.99,0.00,29.2,28.4,00.0,38.2,30.9,09.0,0000.0,0011.21,0003.88,0003.25
2022-03-05 00:21:00,,0813.9,5.00,0.00,29.2,28.4,00.0,38.2,30.9,09.4,0000.0,0009.64,0003.81,0003.21
2022-03-05 00:22:00,,0814.0,5.00,0.00,29.2,28.4,00.0,38.2,30.9,09.4,0000.0,0009.24,0003.72,0003.18
2022-03-05 00:23:00,,0814.0,5.02,0.00,29.2,28.4,00.0,38.2,30.9,09.3,0000.0,0008.33,0003.71,0003.16
2022-03-05 00:24:00,,0814.0,4.98,0.00,29.1,28.4,00.0,38.2,30.8,09.3,0000.0,0008.23,0003.71,0003.15
2022-03-05 00:25:00,,0814.0,5.01,0.00,29.1,28.4,00.0,38.2,30.8,09.3,0000.0,0008.48,0003.67,0003.12
2022-03-05 00:26:00,,0814.0,4.99,0.00,29.1,28.4,00.0,38.2,30.9,09.3,0000.0,0008.53,0003.62,0003.08
2022-03-05 00:27:00,,0814.0,5.01,0.00,29.2,28.4,00.0,38.2,30.9,09.5,0000.0,0008.81,0003.61,0003.06
2022-03-05 00:28:00,,0814.0,4.99,0.00,29.2,28.4,00.0,38.2,30.9,09.6,0000.0,0008.81,0003.60,0003.02
2022-03-05 00:29:00,,0814.0,5.01,0.00,29.2,28.4,00.0,38.2,30.9,09.5,0000.0,0008.15,0003.63,0003.00
2022-03-05 00:30:00,,0814.0,4.99,0.00,29.2,28.4,00.0,38.2,30.9,09.5,0000.0,0008.20,0003.65,0003.00
2022-03-05 00:31:00,,0814.0,5.01,0.00,29.2,28.4,00.0,38.2,30.9,09.5,0000.0,0008.48,0003.63,0002.98
2022-03-05 00:32:00,,0814.0,5.01,0.00,29.2,28.4,00.0,38.2,30.9,09.5,0000.0,0008.82,0003.67,0002.99
2022-03-05 00:33:00,,0813.9,4.99,0.00,29.2,28.4,00.0,38.2,30.9,09.6,0000.0,0008.86,0003.69,0002.98
2022-03-05 00:34:00,,0813.9,5.01,0.00,29.2,28.4,00.0,38.2,30.9,09.5,0000.0,0009.19,0003.65,0002.96
2022-03-05 00:35:00,,0813.9,4.99,0.00,29.2,28.4,00.0,38.2,30.9,09.2,0000.0,0009.28,0003.64,0002.93
2022-03-05 00:36:00,,0814.0,5.01,0.00,29.2,28.4,00.0,38.2,30.9,09.2,0000.0,0009.01,0003.65,0002.93
2022-03-05 00:37:00,,0813.9,4.98,0.00,29.2,28.4,00.0,38.2,30.9,09.3,0000.0,0009.05,0003.69,0002.97
2022-03-05 00:38:00,,0813.9,5.01,0.00,29.2,28.5,00.0,38.2,30.9,09.4,0000.0,0009.49,0003.75,0002.99
2022-03-05 00:39:00,,0814.3,5.00,0.00,29.2,28.5,00.0,38.2,31.0,09.3,0000.0,0009.92,0003.77,0003.02
2022-03-05 00:40:00,,0814.0,5.01,0.00,29.2,28.5,00.0,38.2,31.0,09.3,0000.0,0010.25,0003.79,0003.04
2022-03-05 00:41:00,,0814.0,4.99,0.00,29.2,28.5,00.0,38.2,31.0,09.4,0000.0,0010.45,0003.82,0003.04
2022-03-05 00:42:00,,0813.9,5.01,0.00,29.2,28.5,00.0,38.2,31.0,09.2,0000.0,0010.78,0003.87,0003.06
2022-03-05 00:43:00,,0813.9,5.01,0.00,29.2,28.5,00.0,38.2,31.0,09.3,0000.0,0010.67,0003.85,0003.05
2022-03-05 00:44:00,,0814.0,4.99,0.00,29.2,28.5,00.0,38.2,31.0,09.2,0000.0,0010.84,0003.83,0003.05
2022-03-05 00:45:00,,0813.8,5.01,0.00,29.2,28.5,00.0,38.2,30.9,09.1,0000.0,0011.49,0003.83,0003.06
2022-03-05 00:46:00,,0814.0,4.99,0.00,29.2,28.5,00.0,38.2,30.9,09.4,0000.0,0011.32,0003.86,0003.08
2022-03-05 00:47:00,,0813.9,5.02,0.00,29.2,28.5,00.0,38.2,31.0,09.2,0000.0,0012.71,0003.88,0003.09
2022-03-05 00:48:00,,0813.8,4.99,0.00,29.2,28.5,00.0,38.2,30.9,09.3,0000.0,0013.96,0003.85,0003.09
2022-03-05 00:49:00,,0814.0,5.00,0.00,29.2,28.5,00.0,38.2,30.9,09.5,0000.0,0014.10,0003.84,0003.07
2022-03-05 00:50:00,,0814.0,5.01,0.00,29.2,28.5,00.0,38.2,30.9,09.4,0000.0,0013.66,0003.82,0003.05
2022-03-05 00:51:00,,0814.0,4.99,0.00,29.2,28.5,00.0,38.2,30.9,09.3,0000.0,0013.18,0003.79,0003.03
2022-03-05 00:52:00,,0813.9,5.01,0.00,29.2,28.5,00.0,38.2,30.9,09.3,0000.0,0013.00,0003.77,0003.02
2022-03-05 00:53:00,,0814.0,4.99,0.00,29.2,28.5,00.0,38.3,31.0,09.4,0000.0,0012.37,0003.73,0003.01
2022-03-05 00:54:00,,0813.8,5.02,0.00,29.2,28.5,00.0,38.3,31.0,09.3,0000.0,0012.12,0003.74,0003.00
2022-03-05 00:55:00,,0814.0,4.99,0.00,29.2,28.5,00.0,38.3,30.9,09.3,0000.0,0012.07,0003.79,0002.99
2022-03-05 00:56:00,,0813.9,5.00,0.00,29.2,28.5,00.0,38.3,30.9,09.3,0000.0,0011.07,0003.77,0002.96
2022-03-05 00:57:00,,0813.8,5.00,0.00,29.2,28.5,00.0,38.3,30.9,09.3,0000.0,0010.85,0003.71,0002.95
2022-03-05 00:58:00,,0813.9,5.00,0.00,29.2,28.5,00.0,38.3,30.9,09.3,0000.0,0010.02,0003.73,0002.94
2022-03-05 00:59:00,,0813.8,5.02,0.00,29.2,28.5,00.0,38.3,31.0,09.2,0000.0,0009.04,0003.75,0002.90
